Home   Weather   Cancún   Past weeks

Flag for Mexico Past Weather in Cancún, Quintana Roo, Mexico — Yesterday and Last 2 Weeks

Now
75 °F

Passing clouds.


Feels Like: 75 °F
Forecast: 74 / 85 °F
Wind: 5 mph from Northeast

Location: Cancun International Airport

Current Time: Apr 24, 2017 at 9:52:28 pm

Latest Report: Apr 24, 2017 at 8:40 pm


Visibility: 7 mi

Pressure: 29.89 "Hg

Humidity: 89%

Dew Point: 72 °F

Location of CancúnLocation

Past Weather in Cancún — Graph

°F

Cancún Temperature Yesterday

Maximum temperature yesterday: 90 °F (at 2:44 pm)
Minimum temperature yesterday: 70 °F (at 3:48 am)
Average temperature yesterday: 77 °F

High & Low Weather Summary for the Past Weeks

 TemperatureHumidityPressure
High90 °F (Apr 23, 2:44 pm)100% (Apr 10, 6:40 am)30.10 "Hg (Apr 10, 6:40 am)
Low63 °F (Apr 10, 5:40 am)48% (Apr 15, 2:47 pm)29.78 "Hg (Apr 22, 3:42 am)
Average77 °F78%29.97 "Hg
* Reported Apr 9 7:44 pm — Apr 24 7:42 pm, Cancún, Weather by CustomWeather, © 2017

Note: Actual official high and low records may vary slightly from our data, if they occured in-between our weather recording intervals... More about our weather records

Advertising

Cancún Weather History for the Previous 24 Hours

Scroll right to see more
 ConditionsComfort  
Time TempWeatherWind HumidityBarometerVisibility
7:42 pm
Mon, Apr 24
77 °FBroken clouds.3 mph83%29.87 "Hg7 mi
6:40 pm81 °FScattered clouds.2 mph74%29.85 "Hg7 mi
5:44 pm82 °FBroken clouds.6 mph66%29.84 "Hg7 mi
4:40 pm82 °FPartly sunny.18 mph74%29.84 "Hg7 mi
3:40 pm84 °FScattered clouds.10 mph66%29.85 "Hg7 mi
2:47 pm84 °FScattered clouds.13 mph66%29.85 "Hg7 mi
1:44 pm84 °FScattered clouds.13 mph66%29.90 "Hg7 mi
12:45 pm82 °FPartly sunny.13 mph70%29.91 "Hg7 mi
11:44 am84 °FPartly sunny.7 mph58%29.93 "Hg7 mi
10:44 am84 °FPartly sunny.6 mph58%29.94 "Hg7 mi
9:43 am81 °FPassing clouds.6 mph66%29.93 "Hg7 mi
8:48 am77 °FSunny.7 mph79%29.92 "Hg7 mi
7:43 am68 °FSunny.5 mph100%29.91 "Hg7 mi
6:45 am63 °FClear.No wind100%29.91 "Hg7 mi
5:45 am63 °FClear.3 mph100%29.88 "Hg7 mi
4:43 am64 °FClear.No wind100%29.88 "Hg7 mi
3:43 am64 °FClear.3 mph100%29.88 "Hg7 mi
2:40 am66 °FClear.3 mph100%29.88 "Hg7 mi
1:44 am70 °FClear.3 mph94%29.90 "Hg7 mi
12:45 am70 °FClear.3 mph94%29.90 "Hg7 mi
11:45 pm
Sun, Apr 23
72 °FClear.6 mph94%29.91 "Hg7 mi
10:46 pm72 °FClear.5 mph100%29.92 "Hg7 mi
9:45 pm72 °FClear.5 mph100%29.91 "Hg7 mi
Weather by CustomWeather, © 2017

See weather overviewHow to use our weather pages